Flag for Ethiopia Weather past 2 weeks in Addis Ababa, Ethiopia

Now
59 °F

Partly sunny.


Feels Like: 59 °F
Forecast: 50 / 63 °F
Wind: 5 mph from South

Location: Addis Ababa Airport

Current Time: Aug 1, 2014 at 3:51:07 PM

Latest Report: Aug 1, 2014 at 3:00 PM


Visibility: N/A

Pressure: 30.33 "Hg

Humidity: 88%

Dew point: 55 °F

Location of Addis AbabaLocation

Historic Weather in Addis Ababa — Graph

°F

Addis Ababa temperature yesterday

Maximum temperature yesterday: 66 °F (at 2:00 PM)
Minimum temperature yesterday: 57 °F (at 7:00 AM)
Average temperature yesterday: 61 °F

Past Weeks' High & Low Weather Summary

 TemperatureHumidityPressure
High75 °F (Jul 23, 5:00 PM)100% (Jul 18, 7:00 AM)30.48 "Hg (Jul 18, 7:00 AM)
Low54 °F (Jul 20, 9:00 AM)49% (Jul 23, 1:00 PM)30.24 "Hg (Jul 23, 4:00 PM)
Average61 °F79%30.35 "Hg
* Reported Jul 17 2:00 PM — Aug 1 2:00 PM, Addis Ababa, Weather by CustomWeather, © 2014

Note: Actual official high and low records may vary slightly from our data, if they occured in-between our weather recording intervals... More about our weather records

Advertising

Addis Ababa weather history for previous 24 hours

 ConditionsComfort  
Time TempWeatherWind HumidityBarometerVisibility
2:00 PM
Aug 1
59 °FMostly cloudy.5 mph88%30.33 "HgN/A
1:00 PM63 °FMostly cloudy.9 mph83%30.36 "HgN/A
12:00 PM59 °FCool.5 mph88%30.39 "HgN/A
11:00 AM59 °FCool.N/A82%30.39 "HgN/A
10:00 AM59 °FLight rain. Mostly cloudy.5 mph82%30.42 "Hg5 mi
9:00 AM57 °FMostly cloudy.5 mph88%30.39 "Hg4 mi
7:00 AM55 °FDrizzle. Mostly cloudy.12 mph94%30.36 "Hg2 mi
6:00 AM57 °FLight rain. Mostly cloudy.7 mph88%30.36 "Hg5 mi
5:00 AM57 °FPartly cloudy.7 mph88%30.33 "HgN/A
4:00 AM57 °FPartly cloudy.7 mph88%30.33 "HgN/A
3:00 AM57 °FPartly cloudy.7 mph88%30.33 "HgN/A
2:00 AM57 °FPartly cloudy.5 mph88%30.33 "HgN/A
1:00 AM57 °FPassing clouds.5 mph88%30.36 "HgN/A
12:00 AM57 °FPassing clouds.5 mph88%30.36 "HgN/A
11:00 PM
Jul 31
57 °FMostly cloudy.6 mph88%30.39 "HgN/A
10:00 PM59 °FRain. Mostly cloudy.6 mph88%30.36 "Hg5 mi
9:00 PM61 °FPassing clouds.3 mph83%30.36 "HgN/A
8:00 PM61 °FPassing clouds.5 mph83%30.33 "Hg6 mi
5:00 PM63 °FPassing clouds.12 mph73%30.30 "HgN/A
4:00 PM66 °FPassing clouds.9 mph60%30.30 "HgN/A
3:00 PM66 °FPassing clouds.9 mph60%30.33 "HgN/A
Weather by CustomWeather, © 2014

See weather overviewHow to use our weather pages